This is the latest recevied weather packets stored in our database for station/object N7TUG-8. If no packets are shown the sender has not sent any weather packets the latest 10 day(s).
| Time | Temp. | Humidity | Pressure | Rain* | Wind** | Luminosity | Snow |
|---|---|---|---|---|---|---|---|
| 1777983992 | 13.33° C | 87% | 1013.6 hPa | 0 mm | 2.68 m/s, 129° | - | - |
| 1777983791 | 13.33° C | 86% | 1013.6 hPa | 0 mm | 2.24 m/s, 131° | - | - |
| 1777983021 | 13.33° C | 87% | 1013.6 hPa | 0 mm | 2.68 m/s, 141° | - | - |
| 1777982199 | 13.33° C | 87% | 1013.5 hPa | 0 mm | 3.13 m/s, 122° | - | - |
| 1777981542 | 13.33° C | 87% | 1013.5 hPa | 0 mm | 2.24 m/s, 141° | - | - |
| 1777981306 | 13.33° C | 87% | 1013.5 hPa | 0 mm | 2.68 m/s, 153° | - | - |
| 1777980742 | 13.33° C | 87% | 1013.4 hPa | 0 mm | 3.13 m/s, 145° | - | - |
| 1777980451 | 13.33° C | 87% | 1013.3 hPa | 0 mm | 2.24 m/s, 142° | - | - |
| 1777979976 | 13.33° C | 88% | 1013.3 hPa | 0 mm | 3.13 m/s, 130° | - | - |
| 1777979671 | 13.33° C | 88% | 1013.3 hPa | 0 mm | 3.13 m/s, 134° | - | - |
| 1777978766 | 13.33° C | 88% | 1013.2 hPa | 0 mm | 2.68 m/s, 129° | - | - |
| 1777978292 | 13.33° C | 88% | 1013.1 hPa | 0 mm | 3.13 m/s, 137° | - | - |
| 1777977835 | 13.33° C | 88% | 1013 hPa | 0 mm | 4.02 m/s, 123° | - | - |
| 1777977482 | 13.33° C | 88% | 1012.9 hPa | 0 mm | 2.68 m/s, 132° | - | - |
| 1777976921 | 13.33° C | 88% | 1012.8 hPa | 0 mm | 3.58 m/s, 126° | - | - |
| 1777976131 | 13.33° C | 88% | 1012.8 hPa | 0 mm | 3.13 m/s, 121° | - | - |
| 1777975876 | 13.33° C | 88% | 1012.8 hPa | 0 mm | 2.68 m/s, 132° | - | - |
| 1777975266 | 13.33° C | 88% | 1012.7 hPa | 0 mm | 2.68 m/s, 128° | - | - |
| 1777975062 | 13.33° C | 88% | 1012.8 hPa | 0 mm | 2.68 m/s, 126° | - | - |
| 1777974461 | 13.33° C | 87% | 1012.7 hPa | 0 mm | 2.68 m/s, 136° | - | - |
| 1777974162 | 13.33° C | 88% | 1012.6 hPa | 0 mm | 2.24 m/s, 136° | - | - |
| 1777973531 | 13.33° C | 88% | 1012.6 hPa | 0 mm | 2.68 m/s, 127° | - | - |
| 1777973306 | 13.33° C | 88% | 1012.5 hPa | 0 mm | 3.13 m/s, 128° | - | - |
| 1777972715 | 13.33° C | 88% | 1012.3 hPa | 0 mm | 2.68 m/s, 135° | - | - |
| 1777972446 | 13.33° C | 88% | 1012.4 hPa | 0 mm | 2.68 m/s, 128° | - | - |
* Rain latest hour (hover to see other rain measurements)
** Current wind speed in m/s (hover to see current wind gust speed)